SCP
0 0 -0 -0 -0 -0 -0 -0 -0 -0 -0 -0 -0 -0 -0 -0 -0 -0 -0 -0 -0 -0 -0 -0 0 0 0
0 0 0 0 0 0 0 0 -0 -0 -0 -0 -0 -0 -0 -0 -0 0 -0 -0 -0 -0 -0 -0 0 0 0
0 0 0 0 0 0 0 -0 -0 -0 -0 -0 -0 -0 -0 -0 0 0 0 0 0 0 0 0 0 0 0
0 0 0 0 0 0 0 -0 -0 -0 -0 -0 -0 0 -0 -0 0 -0 -0 0 0 0 0 0 0 0 0
0 0 0 0 0 0 -0 -0 -0 -0 -0 -0 0 0 0 0 0 0 0 0 0 0 0 0 0 0 0
0 0 -0 0 0 0 -0 -0 0 0 0 0 0 0 0 0 0 0 0 0 0 0 0 0 0 0 0
0 0 0 0 0 0 0 0 0 0 0 0 0 0 0 0 0 0 0 0 0 0 0 0 0 0 0
0 0 0 0 0 0 0 0 0 0 0 0 0 0 0 0 0 0 0 0 0 0 0 0 0 0 0
0 0 0 0 0 0 0 0 0 0 0 0 0 0 0 0 0 0 0 0 0 0 0 0 0 0 0
0 0 0 0 0 0 0 0 0 0 0 0 0 0 0 0 0 0 0 0 0 0 0 0 0 0 0
0 0 0 0 0 0 0 0 0 0 0 0 0 0 0 0 0 0 0 0 0 0 0 0 0 0 0
0 0 0 0 0 0 0 0 0 0 0 0 0 0 0 0 0 0 0 0 0 0 0 0 0 0 0
0 0 0 0 0 0 0 0 0 0 0 0 0 0 0 0 0 0 0 0 0 0 0 0 0 0 0
0 0 0 0 0 0 0 0 0 0 0 0 0 0 0 0 0 0 0 0 0 0 0 0 0 0 0
0 0 0 0 0 0 0 0 0 0 0 0 0 0 0 0 0 0 0 0 0 0 0 0 0 0 0
0 0 0 0 0 0 0 0 0 0 0 0 0 0 0 0 0 0 0 0 0 0 0 0 0 0 0
Wind_Speed_500mb
36 31 25 19 16 16 20 23 24 23 22 20 17 16 16 16 16 18 18 18 19 20 23 23 23 23 26
37 30 24 20 20 23 25 25 23 22 20 17 15 15 15 15 15 17 18 18 19 22 23 23 21 25 23
35 30 25 23 25 26 27 25 22 20 17 15 14 14 13 15 15 16 17 18 19 20 20 17 18 21 20
35 30 27 27 27 28 27 24 21 17 14 13 12 11 13 13 14 15 20 20 20 22 21 19 16 21 20
35 32 29 28 28 26 22 19 16 15 11 10 8 8 9 13 13 17 21 20 20 22 20 19 19 17 16
32 29 26 24 28 25 22 17 14 12 9 6 3 7 9 12 16 16 24 19 19 17 16 15 15 17 19
27 26 29 26 25 23 20 16 13 10 7 4 2 3 9 11 16 19 25 23 16 15 15 15 15 15 14
27 29 25 26 25 22 19 17 15 12 8 5 3 8 9 13 21 24 17 15 15 13 12 12 11 9 7
35 32 26 25 23 20 19 17 13 10 8 7 9 9 15 19 18 14 13 12 11 11 13 10 10 7 4
41 34 27 27 28 25 22 17 14 11 11 11 11 14 14 11 9 7 7 9 11 12 11 12 7 5 5
43 37 38 33 31 28 24 20 17 12 12 12 13 12 8 5 4 6 8 8 10 13 14 10 4 5 6
50 48 42 38 35 30 26 22 16 13 12 11 10 6 2 2 3 5 8 12 16 16 12 3 3 4 6
58 54 47 43 37 31 27 21 18 14 11 10 6 3 2 2 3 6 10 14 15 15 9 3 7 11 14
56 52 47 45 37 31 26 21 18 14 10 8 6 4 1 4 8 12 15 17 19 19 17 10 6 12 13
61 56 53 47 37 32 24 21 18 14 12 11 7 3 1 6 12 17 18 19 19 18 17 11 8 6 23
58 54 48 43 39 31 27 24 20 18 16 13 8 1 7 12 16 17 17 18 17 16 15 14 11 13 11
Wind_Direction_500mb
168 171 175 180 177 156 142 132 125 118 111 106 99 88 75 64 53 44 37 29 26 19 8 5 5 6 10
176 178 184 183 164 149 138 132 128 122 116 110 96 82 67 53 44 34 27 26 19 11 12 16 13 6 3
182 184 182 171 158 147 142 139 134 128 123 108 88 75 59 46 35 26 21 10 7 7 3 4 349 348 338
181 180 173 166 158 154 152 148 144 136 125 108 86 65 53 36 19 15 358 358 348 343 341 338 335 333 329
178 178 175 167 163 158 157 153 149 136 114 102 88 59 24 25 352 344 347 339 336 329 330 332 329 335 339
174 182 178 172 163 162 162 160 148 136 139 115 71 34 18 349 336 329 324 324 325 327 331 334 328 326 326
169 171 168 163 164 161 160 159 162 157 156 135 79 337 322 326 313 300 305 316 327 336 334 337 333 328 341
178 170 161 165 162 163 162 165 169 181 184 194 265 293 295 290 294 306 314 331 342 355 350 347 336 325 334
182 181 173 167 167 164 164 175 176 196 211 228 246 264 285 293 303 313 329 349 358 359 350 350 326 313 298
185 192 185 172 172 179 190 196 208 226 230 229 252 290 299 298 308 336 351 2 356 2 1 335 309 270 269
194 187 181 183 183 190 199 212 223 242 254 271 287 292 292 305 329 334 348 357 3 358 360 348 300 262 246
192 186 185 188 194 197 207 222 246 238 246 263 277 275 297 340 329 340 341 344 345 350 1 329 216 198 201
187 184 189 193 199 207 213 223 230 236 248 262 253 212 224 267 322 342 335 328 329 339 17 166 213 253 249
186 189 196 200 201 213 224 222 223 230 237 224 197 194 198 357 343 335 338 340 345 352 355 351 200 242 246
190 195 199 203 209 219 216 214 208 202 194 182 182 178 305 335 335 340 345 355 0 1 359 2 319 280 307
198 205 207 214 217 219 214 205 197 183 181 176 170 154 349 350 350 347 356 2 8 1 355 349 337 310 319
Wind_Speed_850mb
36 31 25 19 16 16 20 23 24 23 22 20 17 16 16 16 16 18 18 18 19 20 23 23 23 23 26
37 30 24 20 20 23 25 25 23 22 20 17 15 15 15 15 15 17 18 18 19 22 23 23 21 25 23
35 30 25 23 25 26 27 25 22 20 17 15 14 14 13 15 15 16 17 18 19 20 20 17 18 21 20
35 30 27 27 27 28 27 24 21 17 14 13 12 11 13 13 14 15 20 20 20 22 21 19 16 21 20
35 32 29 28 28 26 22 19 16 15 11 10 8 8 9 13 13 17 21 20 20 22 20 19 19 17 16
32 29 26 24 28 25 22 17 14 12 9 6 3 7 9 12 16 16 24 19 19 17 16 15 15 17 19
27 26 29 26 25 23 20 16 13 10 7 4 2 3 9 11 16 19 25 23 16 15 15 15 15 15 14
27 29 25 26 25 22 19 17 15 12 8 5 3 8 9 13 21 24 17 15 15 13 12 12 11 9 7
35 32 26 25 23 20 19 17 13 10 8 7 9 9 15 19 18 14 13 12 11 11 13 10 10 7 4
41 34 27 27 28 25 22 17 14 11 11 11 11 14 14 11 9 7 7 9 11 12 11 12 7 5 5
43 37 38 33 31 28 24 20 17 12 12 12 13 12 8 5 4 6 8 8 10 13 14 10 4 5 6
50 48 42 38 35 30 26 22 16 13 12 11 10 6 2 2 3 5 8 12 16 16 12 3 3 4 6
58 54 47 43 37 31 27 21 18 14 11 10 6 3 2 2 3 6 10 14 15 15 9 3 7 11 14
56 52 47 45 37 31 26 21 18 14 10 8 6 4 1 4 8 12 15 17 19 19 17 10 6 12 13
61 56 53 47 37 32 24 21 18 14 12 11 7 3 1 6 12 17 18 19 19 18 17 11 8 6 23
58 54 48 43 39 31 27 24 20 18 16 13 8 1 7 12 16 17 17 18 17 16 15 14 11 13 11
Wind_Direction_850mb
168 171 175 180 177 156 142 132 125 118 111 106 99 88 75 64 53 44 37 29 26 19 8 5 5 6 10
176 178 184 183 164 149 138 132 128 122 116 110 96 82 67 53 44 34 27 26 19 11 12 16 13 6 3
182 184 182 171 158 147 142 139 134 128 123 108 88 75 59 46 35 26 21 10 7 7 3 4 349 348 338
181 180 173 166 158 154 152 148 144 136 125 108 86 65 53 36 19 15 358 358 348 343 341 338 335 333 329
178 178 175 167 163 158 157 153 149 136 114 102 88 59 24 25 352 344 347 339 336 329 330 332 329 335 339
174 182 178 172 163 162 162 160 148 136 139 115 71 34 18 349 336 329 324 324 325 327 331 334 328 326 326
169 171 168 163 164 161 160 159 162 157 156 135 79 337 322 326 313 300 305 316 327 336 334 337 333 328 341
178 170 161 165 162 163 162 165 169 181 184 194 265 293 295 290 294 306 314 331 342 355 350 347 336 325 334
182 181 173 167 167 164 164 175 176 196 211 228 246 264 285 293 303 313 329 349 358 359 350 350 326 313 298
185 192 185 172 172 179 190 196 208 226 230 229 252 290 299 298 308 336 351 2 356 2 1 335 309 270 269
194 187 181 183 183 190 199 212 223 242 254 271 287 292 292 305 329 334 348 357 3 358 360 348 300 262 246
192 186 185 188 194 197 207 222 246 238 246 263 277 275 297 340 329 340 341 344 345 350 1 329 216 198 201
187 184 189 193 199 207 213 223 230 236 248 262 253 212 224 267 322 342 335 328 329 339 17 166 213 253 249
186 189 196 200 201 213 224 222 223 230 237 224 197 194 198 357 343 335 338 340 345 352 355 351 200 242 246
190 195 199 203 209 219 216 214 208 202 194 182 182 178 305 335 335 340 345 355 0 1 359 2 319 280 307
198 205 207 214 217 219 214 205 197 183 181 176 170 154 349 350 350 347 356 2 8 1 355 349 337 310 319